Location: Hokitika
(42.7170°S, 170.9670°E)
Time: 04:18:47
(UTC+13:00)

ATLAS 3B R/B - Pass Details

Date: 24 January 2019
Orbit: 1028 x 1166 km, 63.8° (Epoch: 07 October)

Event Time Altitude Azimuth Distance (km) Brightness Sun altitude
Exits shadow 22:19:05 14° 63° (ENE) 2,744 4.2 -11.6°
Maximum altitude 22:20:34 15° 77° (ENE) 2,697 4.3 -11.8°
Drops below altitude 10° 22:24:11 10° 107° (ESE) 3,056 4.8 -12.3°
Sets 22:28:23 0° 129° (SE) 4,047 5.6 -12.9°
